This is the latest recevied weather packets stored in our database for station/object N6SPP. If no packets are shown the sender has not sent any weather packets the latest 10 day(s).
| Time | Temp. | Humidity | Pressure | Rain* | Wind** | Luminosity | Snow |
|---|---|---|---|---|---|---|---|
| 1777823136 | 13.89° C | 73% | 1014 hPa | 0 mm | - | 210 W/m² | - |
| 1777822833 | 13.89° C | 74% | 1014.2 hPa | 0 mm | - | 186 W/m² | - |
| 1777822532 | 13.33° C | 75% | 1014.3 hPa | 0 mm | - | 163 W/m² | - |
| 1777822229 | 13.33° C | 76% | 1014.1 hPa | 0 mm | - | 147 W/m² | - |
| 1777821926 | 13.33° C | 76% | 1013.9 hPa | 0 mm | - | 131 W/m² | - |
| 1777821624 | 13.33° C | 76% | 1014 hPa | 0 mm | - | 117 W/m² | - |
| 1777821322 | 13.33° C | 77% | 1013.9 hPa | 0 mm | - | 99 W/m² | - |
| 1777821018 | 13.33° C | 77% | 1014 hPa | 0 mm | - | 78 W/m² | - |
| 1777820715 | 12.78° C | 78% | 1013.9 hPa | 0 mm | - | 73 W/m² | - |
| 1777820411 | 12.78° C | 77% | 1013.9 hPa | 0 mm | - | 77 W/m² | - |
| 1777820109 | 12.78° C | 78% | 1013.8 hPa | 0 mm | - | 71 W/m² | - |
| 1777819805 | 12.78° C | 78% | 1014 hPa | 0 mm | - | 64 W/m² | - |
| 1777819503 | 12.78° C | 78% | 1014.1 hPa | 0 mm | - | 55 W/m² | - |
| 1777819201 | 12.78° C | 78% | 1013.9 hPa | 0 mm | - | 54 W/m² | - |
| 1777818897 | 12.78° C | 78% | 1013.7 hPa | 0 mm | - | 53 W/m² | - |
| 1777818593 | 12.78° C | 78% | 1013.8 hPa | 0 mm | - | 55 W/m² | - |
| 1777818290 | 12.78° C | 78% | 1013.6 hPa | 0 mm | - | 59 W/m² | - |
| 1777817987 | 12.78° C | 78% | 1013.5 hPa | 0 mm | - | 62 W/m² | - |
| 1777817684 | 12.78° C | 78% | 1013.6 hPa | 0 mm | - | 55 W/m² | - |
| 1777817381 | 12.78° C | 78% | 1013.5 hPa | 0 mm | - | 48 W/m² | - |
| 1777817078 | 12.78° C | 78% | 1013.2 hPa | 0 mm | - | 42 W/m² | - |
| 1777816774 | 12.78° C | 78% | 1013.2 hPa | 0 mm | - | 35 W/m² | - |
| 1777816472 | 12.78° C | 78% | 1013.1 hPa | 0 mm | - | 29 W/m² | - |
| 1777816169 | 12.78° C | 78% | 1013 hPa | 0 mm | - | 23 W/m² | - |
| 1777815867 | 12.78° C | 78% | 1013.2 hPa | 0 mm | - | 18 W/m² | - |
* Rain latest hour (hover to see other rain measurements)
** Current wind speed in m/s (hover to see current wind gust speed)